Showing default

RUBIN 4/SL-8, 27940

Orbit data source: Space-Track

RUBIN 4/SL-8, 27940 is a payload satellite owned by KVR (DE) in SSO that was launched on Sat, 27 Sep 2003 UTC launched from the Plesetsk Missile And Space Complex (PKMTR). Payload-class satellites include a variety of spacecraft equipped with specific instruments for various scientific and technological missions. These include communications satellites like Starlink; space stations such as the ISS; scientific satellites like the Hubble; Earth observation satellites from companies like Planet Labs, Umbra, and HawkEye 360; GPS; miniature CubeSats for education and research; and military/defense satellites.

Loading next visibility...
Identifier
27940, 2003-042B
Orbit
SSO
Country
Flag of DEDE / GER
Related business
Manufacturer
Polyot
Mission
Spacecraft
Bus & Motor
S3, Unknown motor
Mass
1,479 kg wet, 1,434 kg dry
Launch date (UTC)
2003-09-27 (22 years ago)
Launch vehicle
Unknown
Launch site
Plesetsk Missile And Space Complex (PKMTR)
Object type
Payload
Rocket body
Debris
Shape & HBR
Cyl, 2.1 m
Radar Cross Section
10.179 m², Large (>1 m²)

Expand to show TLE details & history
Last TLE update: 6 hours ago

TLE from 6 hours ago
0 RUBIN 4/SL-8
1 27940U 03042B   26034.44093247  .00000829  00000-0  14910-3 0  9996
2 27940  98.3765 208.9039 0014040  61.1158 299.1453 14.69307462194924
Epoch: 2026-02-03T10:34Z
TLE epoch observation values (Epoch: 2026-02-03T10:34:56.565Z)
Latitude
-0.00007°
Longitude
-83.4536°
Altitude
661.467 km
Speed
7.529 km/s
True Right ascension
13h 55m 36s
True Declination
0° 00' 00"
Sunlit
Object was in daylight at epoch
Visualization orbit readout
Latitude
Unknown
Longitude
Unknown
Altitude
Unknown
Speed
Unknown
Apparent Right ascension
Unknown
Apparent Declination
Unknown
Sunlit
N/A
Visualization observer readout
Local Sidereal Time
18:04:26
Azimuth
Unknown
Elevation
Unknown
Doppler factor
Unknown
Orbital elements
Apogee altitude
670.239 km
Perigee altitude
650.475 km
Semi-major axis
7,038.494 km
Eccentricity
0.0014
Inclination
98.3765°
RAAN
208.9039°
Arg. of periapsis
61.1158°
True anomaly
299.00466°
Mean anomaly
299.1453°
Eccentric anomaly
299.07499°
Mean motion
3.67556 °/min
Orbital period
97.94 mins
BSTAR
0.0001491
Loading maneuver chart data...
Computing Atmospheric mass density...
Loading historical data...
Loading historical data...
Loading historical data...
Loading historical data...
Loading historical data...
Loading historical data...
Loading historical data...
Other satellites on launch #42 in the year 2003 (2003-09-27 UTC)

Documentation

Showing up to 5 results
|